STARLINK-32588, 61866

Orbit data source: Space-Track

STARLINK-32588, 61866 is a payload satellite owned by SpaceX/Seattle (US) in LEO that was launched on Thu, 07 Nov 2024 UTC via an FALCON 9 launch vehicle from the Air Force Eastern Test Range (AFETR). Payloads include a variety of satellites, spacecraft, and rockets equipped with specific instruments for various scientific and technological missions. These include communications satellites like Starlink; space stations such as the ISS; scientific satellites like the Hubble; Earth observation satellites from companies like Planet Labs, Umbra, and HawkEye 360; GPS; miniature CubeSats for education and research; and military/defense satellites.

Loading next visibility...
STARLINK-32588 details
Identifier
61866, 2024-202X
Orbit
LEO
Last TLE update9 hours ago
Origin
Flag of USSpaceX/Seattle (US)
ManufacturerSpaceX/Seattle
MissionOperational spacecraft
Bus & MotorSTARLINK V2M, Unknown motor
Mass730 kg wet, ~700 kg dry
Launch date (UTC)
2024-11-07 (2 months ago)
Launch vehicle
FALCON 9
Launch site
Air Force Eastern Test Range (AFETR)
Object type
Payload
Rocket body
Debris
Shape & HBRUnknown
Radar Cross SectionLarge (>1 m²)

Expand to show TLE details & history

TLE from 9 hours ago
0 STARLINK-32588
1 61866U 24202X   24361.56599617  .00000399  00000-0  16802-4 0  9993
2 61866  42.9992 200.8125 0001032 269.3826  90.6913 15.40704440  8234
Epoch: 2024-12-26T13:35Z
Definitive object data (Epoch: 2024-12-26T13:35:02.069Z)
Latitude0.00005°
Longitude-98.48962°
Altitude443.812 km
Speed7.648 km/s
True Right ascension13h 23m 15s
True Declination0° 00' 00"
Sunlit
Object was in daylight at TLE epoch
Visualization TLE readout
Latitude-19.24736°
Longitude101.28695°
Altitude447.896 km
Speed7.644 km/s
Apparent Right ascension05h 30m 56s
Apparent Declination-41° 42' 22"
Sunlit
Object is in full shadow
Visualization observer readout
Local Sidereal Time21:39:01
Azimuth113.416° SE
Elevation-44.073°
Doppler factor1
Orbital elements
Apogee altitude446.69 km
Perigee altitude445.281 km
Semi-major axis6,824.122 km
Eccentricity0.0001032
Inclination42.9992°
RAAN200.8125°
Arg. of periapsis269.3826°
True anomaly90.70312°
Mean anomaly90.6913°
Eccentric anomaly90.69721°
Mean motion3.85011 °/min
BSTAR0.000016802
Orbital period93.5 mins
Loading maneuver chart data...
Loading historical data...
Loading historical data...
Loading historical data...
Loading historical data...
Loading historical data...
Loading historical data...
Loading historical data...

STARLINK-32588 Visibility forecast

Observer location: undefined°, undefined

Span
Click to sort rows by Start time (UTC) header in descending order
Start Az.
Max El. time (UTC)
Max El. Az.
Max El.
End time (UTC)
End Az.
4 mins2024-12-26 23:26:53.463Z249.523° W2024-12-26 23:28:53.463Z209.371° SW16.37°2024-12-26 23:30:53.463Z174.123° S
4 mins2024-12-27 16:14:53.463Z180.745° SSW2024-12-27 16:15:53.463Z155.461° SSE22.498°2024-12-27 16:18:53.463Z92.652° ESE
5 mins2024-12-27 17:51:53.463Z256.963° W2024-12-27 17:53:53.463Z308.043° NW44.501°2024-12-27 17:56:53.463Z70.546° E
5 mins2024-12-27 19:29:53.463Z290.018° WNW2024-12-27 19:31:53.463Z336.546° NNW35.914°2024-12-27 19:34:53.463Z73.248° E
5 mins2024-12-27 21:08:53.463Z288.911° WNW2024-12-27 21:10:53.463Z104.839° ESE43.255°2024-12-27 21:13:53.463Z108.543° ESE
|